• Join FlightAware (Why Join?)
  • Login
  • US Flag 
08:41AM EST


 

Airport Tracker/Info


-or-


 

Live Flight TrackerFlight Track Log ✈ SBS3563 ✈ 08-Mar-2014 ✈ TIST / STT - TJSJ / SJU

Flight Track Log - Related Links

Times and Time Zones

All times are in EST time to prevent confusion due to time zone crossing. See the SBS3563 flight status page for this flight to view local times or setup timezone preferences in your user account.

Time Position Orientation Groundspeed Altitude Reporting Facility
EST Latitude Longitude Course Direction KTS MPH feet Rate Location/Type
01:44PM 18.3333 -64.9500 180° South 110 127 900  Level San Juan Center
01:45PM 18.3000 -64.9500 180° South 170 196 2,100 1,293 Climbing San Juan Center
01:47PM 18.2667 -65.0333 247° West 190 219 4,800 1,260 Climbing San Juan Center
01:48PM 18.2833 -65.1000 285° West 200 230 5,900 1,041 Climbing San Juan Center
01:49PM 18.3000 -65.1500 289° West 210 242 6,900 793 Climbing San Juan Center
01:50PM 18.3000 -65.2167 270° West 210 242 7,500 550 Climbing San Juan Center
01:51PM 18.3167 -65.2833 285° West 230 265 8,000 248 Climbing San Juan Center
01:52PM 18.3167 -65.3500 270° West 250 288 8,000  Level San Juan Center
01:53PM 18.3333 -65.4333 282° West 260 299 8,000  Level San Juan Center
01:54PM 18.3500 -65.5000 285° West 250 288 8,000 -198 Level San Juan Center
01:55PM 18.3500 -65.5833 270° West 250 288 7,600 -650 Descending San Juan Center
01:56PM 18.3667 -65.6500 285° West 270 311 6,700 -793 Descending San Juan Center
01:57PM 18.3833 -65.7333 282° West 260 299 6,000 -347 Descending San Juan Center
01:58PM 18.3667 -65.8000 255° West 230 265 6,000 -595 Level San Juan Center
01:59PM 18.3667 -65.8500 270° West 190 219 4,800 -992 Descending San Juan Center
02:00PM 18.3667 -65.9167 270° West 200 230 4,000 -400 Descending San Juan Center
02:01PM 18.3667 -65.9667 270° West 200 230 4,000  Level San Juan Center
02:02PM 18.3667 -66.0333 270° West 200 230 4,000 -350 Level San Juan Center
02:03PM 18.3667 -66.0833 270° West 190 219 3,300 -545 Descending San Juan Center
02:04PM 18.3667 -66.1500 270° West 200 230 2,900 -496 Descending San Juan Center
02:05PM 18.4000 -66.1833 317° Northwest 180 207 2,300 -446 Descending San Juan Center
02:06PM 18.4333 -66.1667 25° Northeast 160 184 2,000 -149 Descending San Juan Center
02:07PM 18.4333 -66.1167 90° East 140 161 2,000 -150 Level San Juan Center
02:08PM 18.4333 -66.0833 90° East 120 138 1,700 -446 Descending San Juan Center
02:09PM 18.4333 -66.0500 90° East 120 138 1,100 -645 Descending San Juan Center
02:10PM 18.4333 -66.0167 90° East 110 127 400 -700 Descending San Juan Center